Lexington Weather

Lexington, Massachusetts, USA

47°F
12/8/2022 3:34pm 
  • Lexington Conditions: Clear
  • Temperature: 46.9°F / 8.3°CColder 2.0°F than last hour.
  • Dew Point: 34.5°FDecreased 1.1°Fsince last hour.
  • Relative Humidity: 62%Increased 2.0% since last hour.
  • Wind: Wind from N N 4 mph, 10-min avg: 3 mph, gust: 12 mph
  • Barometer: 30.09 inRising 0.02  inHg/hr Rising Slowly
  • Visibility: 10 miles
  • Rain Today: 0.00 in
  •   

Warning: Undefined variable $rc in /homepages/6/d276339138/htdocs/weather/20190804/ssi/nwsProduct.php on line 323

Warning: Undefined variable $rc in /homepages/6/d276339138/htdocs/weather/20190804/ssi/nwsProduct.php on line 325

Warning: Undefined variable $rc in /homepages/6/d276339138/htdocs/weather/20190804/ssi/nwsProduct.php on line 323

Warning: Undefined variable $rc in /homepages/6/d276339138/htdocs/weather/20190804/ssi/nwsProduct.php on line 325

Warning: Undefined variable $rc in /homepages/6/d276339138/htdocs/weather/20190804/ssi/nwsProduct.php on line 323

Warning: Undefined variable $rc in /homepages/6/d276339138/htdocs/weather/20190804/ssi/nwsProduct.php on line 325

Warning: Undefined variable $rc in /homepages/6/d276339138/htdocs/weather/20190804/ssi/nwsProduct.php on line 323

Warning: Undefined variable $rc in /homepages/6/d276339138/htdocs/weather/20190804/ssi/nwsProduct.php on line 325

Warning: Undefined variable $rc in /homepages/6/d276339138/htdocs/weather/20190804/ssi/nwsProduct.php on line 323

Warning: Undefined variable $rc in /homepages/6/d276339138/htdocs/weather/20190804/ssi/nwsProduct.php on line 325

Warning: Undefined variable $rc in /homepages/6/d276339138/htdocs/weather/20190804/ssi/nwsProduct.php on line 323

Warning: Undefined variable $rc in /homepages/6/d276339138/htdocs/weather/20190804/ssi/nwsProduct.php on line 325

Warning: Undefined variable $rc in /homepages/6/d276339138/htdocs/weather/20190804/ssi/nwsProduct.php on line 323

Warning: Undefined variable $rc in /homepages/6/d276339138/htdocs/weather/20190804/ssi/nwsProduct.php on line 325

Regional Weather Roundup
for Boston, MA

        
000
ASUS41 KBOX 020810
RWRBOX

REGIONAL WEATHER ROUNDUP
NATIONAL WEATHER SERVICE BOSTON/NORTON MA
300 AM EST FRI DEC 02 2022

NOTE:  "FAIR" INDICATES FEW OR NO CLOUDS BELOW 12,000 FEET WITH NO 
SIGNIFICANT WEATHER AND/OR OBSTRUCTIONS TO VISIBILITY.

MAZALL-020900-
EASTERN MASSACHUSETTS
  
CITY           SKY/WX    TMP DP  RH WIND       PRES   REMARKS
BOSTON         CLEAR     34  23  64 SW8       30.41R WCI  27          
BEVERLY        CLEAR     29  21  72 W6        30.39R WCI  23          
LAWRENCE       CLEAR     29  22  75 SW7       30.41R WCI  22          
BEDFORD        CLEAR     31  22  69 W6        30.39R WCI  25          
NORWOOD        CLEAR     31  21  66 W7        30.42R WCI  24          
MARSHFIELD       N/A     30  23  74 CALM      30.41S                  
PLYMOUTH       CLEAR     30  21  69 W6        30.41R WCI  24          
TAUNTON          N/A    N/A N/A N/A MISG      30.43R                  
NEW BEDFORD    CLEAR     30  24  78 W3        30.42R                  
$$

MAZALL-020900-
CAPE COD AND THE ISLANDS
  
CITY           SKY/WX    TMP DP  RH WIND       PRES   REMARKS
FALMOUTH       CLEAR     32  23  69 NW7G14    30.42R WCI  26          
HYANNIS        CLEAR     33  24  69 W5        30.41R WCI  29          
CHATHAM        CLEAR     34  22  61 W8        30.41R WCI  27          
PROVINCETOWN   PTCLDY    38  27  64 W15G21    30.41R WCI  29          
NANTUCKET      CLEAR     40  26  57 NW9       30.42R                  
MARTHAS VNYRD  CLEAR     36  25  64 NW7       30.43R WCI  30          
$$
 
MAZALL-020900-
CENTRAL AND WESTERN MASSACHUSETTS
  
CITY           SKY/WX    TMP DP  RH WIND       PRES   REMARKS
WORCESTER      CLEAR     30  21  69 W9        30.37R WCI  22          
FITCHBURG      CLEAR     23  18  81 CALM      30.40R                  
ORANGE         CLEAR     23  20  88 CALM      30.40R                  
SPRINGFIELD    CLEAR     27  20  75 W6        30.40R WCI  21          
WESTFIELD      CLEAR     25  20  81 CALM      30.43R                  
NORTH ADAMS    CLEAR     30  22  72 W5        30.41R WCI  25          
PITTSFIELD     PTCLDY    29  21  72 W13       30.38R WCI  19          
$$
 
RIZALL-020900-
RHODE ISLAND
  
CITY           SKY/WX    TMP DP  RH WIND       PRES   REMARKS
PROVIDENCE     CLEAR     30  21  69 W5        30.44R WCI  25          
NEWPORT        CLEAR     33  22  63 W7        30.43R WCI  27          
BLOCK ISLAND   CLEAR     36  23  59 NW9G18    30.45R WCI  29          
SMITHFIELD     CLEAR     30  22  72 SW3       30.41R                  
WESTERLY       CLEAR     32  21  64 W5        30.45R WCI  27          
$$
 
CTZALL-020900-
CONNECTICUT
  
CITY           SKY/WX    TMP DP  RH WIND       PRES   REMARKS
BRADLEY INTL   CLEAR     28  20  71 SW7       30.43S WCI  21          
HARTFORD       CLEAR     33  21  61 S5        30.45S WCI  29          
BRIDGEPORT     CLEAR     32  21  64 W6        30.47R WCI  26          
DANBURY        CLEAR     26  20  77 CALM      30.46S                  
GROTON         CLEAR     34  21  59 W8        30.45S WCI  27          
NEW HAVEN      CLEAR     36  23  59 W7        30.46S WCI  30          
CHESTER        FAIR      30  19  64 VRB5      30.43S WCI  25          
MERIDEN        CLEAR     27  21  78 CALM      30.46R                  
WILLIMANTIC    CLEAR     30  21  69 CALM      30.43S                  
OXFORD         CLEAR     28  20  71 W3        30.43S                  
$$

MEZ002-015-021-024-NHZ003-005-008-011-012-014-VTZ005-008-020900-
NORTHERN NEW ENGLAND
  
CITY           SKY/WX    TMP DP  RH WIND       PRES   REMARKS
PORTLAND ME    CLEAR     27  19  72 SW6       30.37R WCI  20          
BANGOR ME      CLEAR     26  16  65 W3        30.33R                  
CONCORD NH     CLEAR     25  20  81 NW3       30.37R                  
MANCHESTER NH  CLEAR     30  22  72 CALM      30.37R                  
NASHUA NH      CLEAR     25  25 100 CALM      30.40R                  
PORTSMOUTH NH  CLEAR     29  22  74 W6        30.38R WCI  23          
JAFFREY NH     CLEAR     29  22  75 SW5       30.35R WCI  24          
KEENE NH       CLEAR     24  23  96 CALM        N/A                   
BURLINGTON VT  CLOUDY    32  20  61 CALM      30.40R                  
MT. WASHINGTON FOG        5   5 100 NW66        N/A  VSB 1/16WCI -27  
$$

NYZ052-076-020900-
EASTERN NEW YORK
  
CITY           SKY/WX    TMP DP  RH WIND       PRES   REMARKS
ALBANY         CLOUDY    33  23  66 NW8       30.45R WCI  26          
NEW YORK CITY  CLEAR     34  19  54 NW6       30.49R WCI  29          
$$
 
ANZALL-020900-
MARINE OBSERVATIONS
  
STATION/POSITION TIME  TEMP    WIND        PRES    VSBY  WAVE
                       AIR SEA DIR/SP/G                  HT/PER
                 (UTC) (F)     (DEG/KT/KT) (MB)    (MI)  (FT/S)
BOSTON BUOY      0750      51  280/ 14/ 17 1030.0R         2/ 3
BUZZARDS BAY     0700   39     300/ 18/ 21 1030.5R
NANTUCKET SOUND  0750   41 49  290/ 16/ 21 1030.1R         2/ 3
MASS BAY-STELLWA 0604   40 50  280/ 16/ 21 1027.7R  1 7/8  3/ 4
ISLE OF SHOALS   0700   37     270/ 13/ 16 1027.6R
S OF BLOCK IS    0756      55                N/A           4/ 5
$$

......................KEY.........................
  SKY/WX - SKY CONDITION/PRESENT WEATHER
  TMP    - TEMPERATURE IN FAHRENHEIT
  DWPT   - DEWPOINT IN FAHRENHEIT
  RH     - RELATIVE HUMIDITY IN PERCENT
  WIND   - DIRECTION AND SPEED IN MPH
  PRES   - MEAN SEA LEVEL PRESSURE IN INCHES OF HG
  WCI    - WIND CHILL INDEX
  VSB    - VISIBILITY IN MILES
  HX     - HEAT INDEX
  TC     - TEMPERATURE IN CELSIUS
  VRB    - VARIABLE WIND DIRECTION
  N/A    - NOT AVAILABLE
  
      

Other recent Regional Weather Roundups

Thu Dec 8, 3:10pm

Thu Dec 8, 2:10pm

Thu Dec 8, 1:10pm

Thu Dec 8, 12:10pm

Thu Dec 8, 11:10am

Thu Dec 8, 10:10am

Thu Dec 8, 9:10am

Thu Dec 8, 8:10am

Thu Dec 8, 7:10am

Thu Dec 8, 6:10am

Thu Dec 8, 5:10am

Thu Dec 8, 4:10am

Thu Dec 8, 3:10am

Thu Dec 8, 2:10am

Thu Dec 8, 1:10am

Thu Dec 8, 12:10am

Wed Dec 7, 11:10pm

Wed Dec 7, 10:10pm

Wed Dec 7, 9:10pm

Wed Dec 7, 8:10pm

Wed Dec 7, 7:10pm

Wed Dec 7, 6:10pm

Wed Dec 7, 5:10pm

Wed Dec 7, 4:10pm

Wed Dec 7, 3:10pm

Wed Dec 7, 2:10pm

Wed Dec 7, 1:10pm

Wed Dec 7, 12:10pm

Wed Dec 7, 11:10am

Wed Dec 7, 10:10am

Wed Dec 7, 9:10am

Wed Dec 7, 8:10am

Wed Dec 7, 7:10am

Wed Dec 7, 6:10am

Wed Dec 7, 5:10am

Wed Dec 7, 4:10am

Wed Dec 7, 3:10am

Wed Dec 7, 2:10am

Wed Dec 7, 1:10am

Wed Dec 7, 12:10am

Tue Dec 6, 11:10pm

Tue Dec 6, 10:10pm

Tue Dec 6, 9:10pm

Tue Dec 6, 8:10pm

Tue Dec 6, 7:10pm

Tue Dec 6, 6:10pm

Tue Dec 6, 5:10pm

Tue Dec 6, 4:10pm

Tue Dec 6, 3:10pm

Tue Dec 6, 2:10pm

Tue Dec 6, 1:10pm

Tue Dec 6, 12:10pm

Tue Dec 6, 11:10am

Tue Dec 6, 10:10am

Tue Dec 6, 9:10am

Tue Dec 6, 8:10am

Tue Dec 6, 7:10am

Tue Dec 6, 6:10am

Tue Dec 6, 5:10am

Tue Dec 6, 4:10am

Tue Dec 6, 3:10am

Tue Dec 6, 2:10am

Tue Dec 6, 1:10am

Tue Dec 6, 12:10am

Mon Dec 5, 11:10pm

Mon Dec 5, 10:10pm

Mon Dec 5, 9:10pm

Mon Dec 5, 8:10pm

Mon Dec 5, 7:10pm

Mon Dec 5, 6:10pm

Mon Dec 5, 5:10pm

Mon Dec 5, 4:10pm

Mon Dec 5, 3:10pm

Mon Dec 5, 2:10pm

Mon Dec 5, 1:10pm

Mon Dec 5, 12:10pm

Mon Dec 5, 11:10am

Mon Dec 5, 10:10am

Mon Dec 5, 9:10am

Mon Dec 5, 8:10am

Mon Dec 5, 7:10am

Mon Dec 5, 6:10am

Mon Dec 5, 5:10am

Mon Dec 5, 4:10am

Mon Dec 5, 3:10am

Mon Dec 5, 2:10am

Mon Dec 5, 1:10am

Mon Dec 5, 12:10am

Sun Dec 4, 11:10pm

Sun Dec 4, 10:10pm

Sun Dec 4, 9:10pm

Sun Dec 4, 8:10pm

Sun Dec 4, 7:10pm

Sun Dec 4, 6:10pm

Sun Dec 4, 5:10pm

Sun Dec 4, 4:10pm

Sun Dec 4, 3:10pm

Sun Dec 4, 2:10pm

Sun Dec 4, 1:10pm

Sun Dec 4, 12:10pm

Sun Dec 4, 11:10am

Sun Dec 4, 10:10am

Sun Dec 4, 9:10am

Sun Dec 4, 8:10am

Sun Dec 4, 7:10am

Sun Dec 4, 6:10am

Sun Dec 4, 5:10am

Sun Dec 4, 4:10am

Sun Dec 4, 3:10am

Sun Dec 4, 2:10am

Sun Dec 4, 1:10am

Sun Dec 4, 12:10am

Sat Dec 3, 11:10pm

Sat Dec 3, 10:10pm

Sat Dec 3, 9:10pm

Sat Dec 3, 8:10pm

Sat Dec 3, 7:10pm

Sat Dec 3, 6:10pm

Sat Dec 3, 5:10pm

Sat Dec 3, 4:10pm

Sat Dec 3, 3:10pm

Sat Dec 3, 2:10pm

Sat Dec 3, 1:10pm

Sat Dec 3, 12:10pm

Sat Dec 3, 11:10am

Sat Dec 3, 10:10am

Sat Dec 3, 9:10am

Sat Dec 3, 8:10am

Sat Dec 3, 7:10am

Sat Dec 3, 6:10am

Sat Dec 3, 5:10am

Sat Dec 3, 4:10am

Sat Dec 3, 3:10am

Sat Dec 3, 2:10am

Sat Dec 3, 1:10am

Sat Dec 3, 12:10am

Fri Dec 2, 11:10pm

Fri Dec 2, 10:10pm

Fri Dec 2, 9:10pm

Fri Dec 2, 8:10pm

Fri Dec 2, 7:10pm

Fri Dec 2, 6:10pm

Fri Dec 2, 5:10pm

Fri Dec 2, 4:10pm

Fri Dec 2, 3:10pm

Fri Dec 2, 2:10pm

Fri Dec 2, 1:10pm

Fri Dec 2, 12:10pm

Fri Dec 2, 11:10am

Fri Dec 2, 10:10am

Fri Dec 2, 9:10am

Fri Dec 2, 8:10am

Fri Dec 2, 7:10am

Fri Dec 2, 6:10am

Fri Dec 2, 5:10am

Fri Dec 2, 4:10am

Fri Dec 2, 2:10am

Fri Dec 2, 1:10am

Fri Dec 2, 12:10am

Thu Dec 1, 11:10pm

Thu Dec 1, 10:10pm

Thu Dec 1, 9:10pm

Thu Dec 1, 8:10pm

Thu Dec 1, 7:10pm

Thu Dec 1, 6:10pm

Thu Dec 1, 5:10pm

Thu Dec 1, 4:10pm

Meta data:

ID: 3a026083-61ca-4a98-ab07-24021117c3a9
Link: https://api.weather.gov/products/3a026083-61ca-4a98-ab07-24021117c3a9